Location: Sinnemahoning State Park
(41.4031°N, 78.0230°W)
Time: 07:37:10
(UTC-04:00)

Daily predictions for brighter satellites

Satellite Brightness Start Highest point End
(mag) Time Altitude Azimuth Time Altitude Azimuth Time Altitude Azimuth
Cosmos 2278 Rocket 3.4 20:17:52 10° N 20:22:32 25° NE 20:27:09 10° ESE
Cosmos 1633 Rocket 3.6 20:22:25 10° N 20:26:28 37° ENE 20:30:31 10° SE
Cosmos 2221 3.8 20:29:47 10° SSW 20:33:52 46° WNW 20:38:00 10° N
NOSS 2-1 (C) 3.4 20:33:09 10° SW 20:36:45 74° NW 20:40:43 10° NNE
NOSS 2-1 (D) 3.5 20:34:09 10° SW 20:37:44 71° NW 20:41:43 10° NNE
BREEZE-M DEB (TANK) 3.3 20:32:50 10° WNW 20:38:12 46° NNE 20:40:36 10° E
Cosmos 1340 2.6 20:35:16 10° S 20:39:03 88° E 20:42:51 10° N
Thor Agena Rocket 3.6 20:36:46 10° NNE 20:42:00 66° ESE 20:47:14 10° S
Cosmos 2228 Rocket 4.0 20:38:52 10° SSE 20:42:34 28° E 20:46:19 10° NNE
In-Cosmos 22 Rocket 4.4 20:37:07 10° NNW 20:42:35 72° W 20:47:53 10° S
SL-24 R/B - RUBIN 2 3.7 20:38:24 10° NW 20:42:45 74° WSW 20:47:07 10° SSE
Lacrosse 5 4.4 20:41:21 10° NNW 20:43:50 13° N 20:46:19 10° NNE
ATLAS 2AS CENTAUR R/B 3.1 20:37:22 10° NNW 20:45:15 62° NE 20:52:15 11° SE
OAO 2 Rocket 4.4 20:46:00 10° WSW 20:50:41 33° SSW 20:54:42 13° SE
Cosmos 1805 Rocket 4.4 20:47:15 10° NNW 20:51:28 54° W 20:55:41 10° S
Cosmos 1825 3.5 20:49:51 10° NNE 20:52:54 23° ENE 20:54:53 15° ESE
Spot 2 Rocket 3.8 20:49:33 10° SE 20:54:27 50° ENE 20:59:22 10° N
Cosmos 1328 Rocket 3.6 20:52:14 10° S 20:56:33 59° E 21:00:56 10° NNE
Cosmos 2154 Rocket 4.1 20:51:51 10° S 20:58:07 84° W 21:04:23 10° N
ATLAS CENTAUR R/B 1.0 20:55:07 10° SSW 20:58:44 70° ESE 21:02:32 10° NE
SL-8 R/B 3.8 20:54:17 10° SW 20:58:56 54° SE 21:03:37 10° ENE
SL-16 R/B 3.5 21:01:33 15° SE 21:03:56 19° E 21:07:48 10° NE
Resurs 01 Rocket 1.6 21:02:47 10° SSE 21:07:14 86° ENE 21:11:42 10° NNW
Cosmos 1470 Rocket 3.6 21:05:18 10° N 21:09:39 58° E 21:13:18 14° SSE
ARGOS 4.1 21:06:46 17° ESE 21:09:54 30° ENE 21:14:30 10° N
Meteor 2-3 Rocket 3.7 21:07:55 10° N 21:13:34 89° WSW 21:19:12 10° S
Cosmos 1939 Rocket 3.4 21:14:00 10° S 21:17:48 57° W 21:21:40 10° NNW
Cosmos 2341 Rocket 4.1 21:15:06 10° S 21:21:28 82° W 21:27:50 10° N
Cosmos 1869 3.7 21:19:48 22° SSE 21:21:59 41° E 21:25:47 10° NNE
NOSS 3-3 (A) 4.4 21:16:17 10° SW 21:22:17 66° NW 21:28:54 10° NNE
NOSS 3-3 (C) 4.4 21:16:23 10° SW 21:22:23 67° NW 21:29:01 10° NNE
NOSS 0 Rocket 3.9 21:17:02 10° SSW 21:23:12 86° ESE 21:29:26 10° NNE
Meteor 2-10 Rocket 4.2 21:20:50 16° SSE 21:24:58 41° E 21:30:23 10° NNE
Cosmos 2218 Rocket 4.1 21:20:03 10° S 21:26:15 60° E 21:32:32 10° NNE
USA 267 4.0 21:24:06 10° ENE 21:29:21 26° SE 21:34:36 10° S
Cosmos 1980 3.6 21:24:13 10° SSW 21:29:54 87° ESE 21:35:37 10° NNE
ERS-1 Rocket 3.9 21:30:08 25° ESE 21:31:53 32° ENE 21:36:18 10° N
Cosmos 407 Rocket 4.2 21:27:42 10° N 21:32:26 36° ENE 21:34:17 27° ESE
Cosmos 2297 4.5 21:29:54 10° N 21:35:07 36° ENE 21:37:25 26° ESE
Cosmos 1408 2.5 21:32:46 10° N 21:36:28 88° W 21:38:11 30° S
Cosmos 2366 rocket 3.9 21:31:37 10° S 21:37:44 67° E 21:43:58 10° NNE
Cosmos 1933 Rocket 3.6 21:33:52 10° N 21:38:16 81° W 21:41:04 22° S
H-2A R/B 2.6 21:36:33 30° ESE 21:38:19 39° ENE 21:42:56 10° N
Cosmos 2333 Rocket 3.2 21:35:22 10° SW 21:40:50 49° WNW 21:46:21 10° NNE
Cosmos 1151 Rocket 3.3 21:37:33 10° SSW 21:41:47 65° W 21:46:02 10° N
TRAILBLAZER 4.5 21:37:13 10° SSW 21:41:47 82° ESE 21:46:28 10° NE
Cosmos 1371 Rocket 3.9 21:36:38 10° S 21:41:54 70° ESE 21:47:15 10° NNE
Cosmos 1455 4.1 21:38:50 10° SW 21:42:17 32° WNW 21:45:47 10° NNW
Cosmos 1441 Rocket 4.4 21:45:32 26° ENE 21:45:32 26° ENE 21:47:49 10° NNE
SL-8 Rocket 4.1 21:40:33 10° S 21:46:52 80° W 21:53:11 10° N
MetOp-A 4.1 21:51:20 34° SSE 21:53:42 73° ENE 21:59:03 10° N
Cosmos 1339 Rocket 4.4 21:48:23 10° N 21:54:30 77° E 21:57:44 30° SSE
Cosmos 2219 Rocket 4.0 21:50:28 10° WSW 21:55:32 33° WNW 22:00:37 10° N
CZ-4C R/B 4.4 21:59:36 10° ENE 21:59:36 10° ENE 21:59:39 10° ENE
Cosmos 2237 Rocket 2.7 21:51:46 10° SW 21:57:18 62° WNW 22:02:54 10° NNE
Cosmos 1869 Rocket 3.7 21:56:24 10° N 22:00:41 52° E 22:00:54 51° E
Cosmos 2056 Rocket 3.5 21:57:58 10° SSW 22:03:24 86° ESE 22:08:49 10° NNE
Cosmos 1452 Rocket 4.5 22:05:38 30° ENE 22:05:38 30° ENE 22:09:07 10° NE
Cosmos 2278 Rocket 2.8 22:01:24 10° NNW 22:06:53 51° WSW 22:09:51 26° S
Helios 1A 3.4 22:08:42 47° ENE 22:08:42 47° ENE 22:12:35 10° N
Terra 3.4 22:09:24 21° ENE 22:09:24 21° ENE 22:12:46 10° NNE
ATLAS 5 CENTAUR R/B 4.3 22:05:49 10° N 22:09:35 17° NE 22:12:36 13° ENE
Cosmos 1862 3.4 22:05:59 10° N 22:09:45 62° ENE 22:09:45 62° ENE
Cosmos 2098 Rocket 3.4 22:07:13 20° SSW 22:10:23 61° W 22:14:12 10° N
Cosmos 405 Rocket 3.2 22:15:04 49° NNE 22:15:04 49° NNE 22:18:05 10° NNE
Cosmos 405 3.5 22:14:26 10° NNW 22:17:29 58° NW 22:17:29 58° NW
Cosmos 1624 Rocket 4.3 22:15:18 10° SSW 22:20:26 64° WNW 22:25:37 10° NNE
Cosmos 1190 Rocket 4.0 22:18:36 10° NNW 22:23:54 76° WSW 22:24:56 57° S
ATLAS 2A CENTAUR R/B 4.3 22:13:09 10° SW 22:26:41 31° S 22:27:45 30° S
Cosmos 1140 Rocket 3.6 22:21:52 10° NNW 22:26:59 57° ENE 22:27:07 57° ENE
SPOT 5 2.8 22:28:34 63° NE 22:28:34 63° NE 22:32:43 10° N
Cosmos 1825 4.3 22:25:23 10° NW 22:28:20 22° W 22:29:46 18° WSW
Lacrosse 5 3.8 22:24:46 10° NNW 22:28:35 21° NNE 22:30:33 17° NE
Cosmos 1934 Rocket 4.4 22:33:03 43° E 22:33:03 43° E 22:38:20 10° NNE
ATLAS 2AS CENTAUR R/B 4.2 22:29:12 10° NW 22:35:44 31° WSW 22:39:43 19° SSW
Cosmos 1954 Rocket 3.9 22:31:35 10° NNW 22:36:47 72° ENE 22:36:47 72° ENE
GEOS 3 Rocket 3.6 22:35:36 10° NE 22:41:00 84° NW 22:43:44 30° SW
SL-16 R/B 2.6 22:43:11 17° SW 22:47:31 60° WNW 22:53:08 10° NNE
CZ-2C R/B 4.2 22:49:11 28° NE 22:49:11 28° NE 22:52:16 10° N
ARGOS 4.3 22:48:16 28° SW 22:50:01 35° W 22:54:55 10° NNW
Cosmos 2344 3.4 22:43:58 10° SSW 22:51:34 81° ESE 22:59:52 10° NE
SL-19 R/B 4.1 22:53:15 86° SSE 22:53:23 90° ENE 22:59:00 10° NNW
Cosmos 1000 Rocket 4.4 22:47:16 10° N 22:53:30 85° W 22:54:15 71° S
Cosmos 1943 Rocket 3.6 22:50:14 10° N 22:54:37 24° NE 22:54:37 24° NE
Cosmos 1821 Rocket 4.0 22:57:37 67° SSW 22:58:33 84° W 23:04:55 10° N
DMSP B5D2-2 4.4 22:58:45 10° N 23:03:56 61° WNW 23:04:25 58° W
NOSS 3-4 (A) 4.1 22:59:46 10° NW 23:06:43 56° WSW 23:07:53 51° SSW
NOSS 3-4 (C) 4.1 22:59:52 10° NW 23:06:49 57° WSW 23:07:59 52° SSW
Cosmos 1420 Rocket 4.3 23:08:01 63° N 23:08:01 63° N 23:12:33 10° NNE
SPOT 1/Viking Rocket 4.0 23:09:39 55° W 23:09:39 55° W 23:14:34 10° NNW
ERS-1 Rocket 4.3 23:10:08 29° WSW 23:10:37 30° W 23:15:01 10° NW
USA 267 3.2 23:06:15 10° NE 23:12:49 85° NW 23:19:22 10° SW
Cosmos 1603 4.4 23:16:16 44° NE 23:16:16 44° NE 23:20:03 10° NNE
Meteor 1-14 Rocket 4.5 23:09:22 10° N 23:14:01 61° NNE 23:14:01 61° NNE
Cosmos 2123 Rocket 3.9 23:09:46 10° N 23:15:50 81° NE 23:15:50 81° NE
H-2A R/B 3.7 23:17:10 23° WSW 23:17:50 24° W 23:21:49 10° NW
Helios 1B rocket 4.3 23:22:27 10° N 23:25:09 29° NW 23:25:09 29° NW
Cosmos 2369 Rocket 2.8 23:20:42 10° NNW 23:25:18 50° NNE 23:25:18 50° NNE
CZ-2C R/B 3.8 23:36:20 10° NNE 23:39:33 37° NNE 23:39:33 37° NNE
CZ-4C R/B 2.9 23:44:41 49° N 23:44:41 49° N 23:49:26 10° NNE
USA 234 3.5 23:45:38 57° NE 23:46:00 58° NE 23:52:24 10° NW
Terra 3.4 23:48:17 31° NW 23:48:17 31° NW 23:51:09 10° NNW
Cosmos 1605 Rocket 4.3 23:49:31 65° NW 23:49:31 65° NW 23:55:16 10° N
